sat.trackr.live / text

‹ back to catalog

STARLINK-30884

NORAD 58372 · 2023-177X

PAYLOAD ACTIVE UNKNOWN

§ Identity

Operator
Country
US
Launch date
2023-11-18
Launch site
AFETR
Launch vehicle
Mass (kg)
RCS (m²)

Purposes: comms

External: N2YO · Heavens-Above · Gunter

§ Orbital elements

Epoch: 2026-05-24T19:17:41.187552Z

Period
94.27 min
Inclination
43.0004°
Eccentricity
0.0001267
Mean motion
15.27574706 rev/d
Perigee alt
482.2 km
Apogee alt
483.9 km
Semi-major
6,861.2 km
B*
1.0732e-5
RAAN
281.1275°
Arg perigee
282.2984°
Mean anomaly
77.7725°
Rev number
13,986

§ Raw data

STARLINK-308841 58372U 23177X   26144.80394893  .00000033  00000+0  10732-4 0  99982 58372  43.0004 281.1275 0001267 282.2984  77.7725 15.27574706139861

JSON: /api/v1/satellites/58372 · /tle

For live sub-satellite position, see the globe view (requires WebGL).

§ Visibility from observer

Set your observer location to see the next 7 days of passes ≥ 10°. The values pass through the URL so the page stays shareable.

No JS? Fill the form by hand. The geolocation button needs JavaScript.